SCP
0 0 0 0 0 0 0 0 0 0 0 0 0 0 0 0 0 0 0 0 0 0 0 0 0 0 0 0 0 1 1 1 1 1 0 0 0 0 0 1 1 1 0 0
0 0 0 0 0 0 0 0 0 0 0 0 0 0 0 0 0 0 0 0 0 0 0 0 0 0 0 0 0 0 1 1 1 0 0 0 0 0 0 0 1 1 0 0
0 0 0 0 0 0 0 0 0 0 0 0 0 0 0 0 0 0 0 0 0 0 0 0 0 0 0 0 0 0 0 1 1 1 0 0 0 0 0 0 0 0 0 0
0 0 0 0 0 0 0 0 0 0 0 0 0 0 0 0 0 0 0 0 0 0 0 0 0 0 0 0 0 0 0 0 1 1 1 0 0 0 0 0 0 0 0 0
0 0 0 0 0 0 0 0 0 0 0 0 0 0 0 0 0 0 0 0 0 0 0 0 0 0 0 0 0 0 0 0 0 0 0 0 0 0 0 0 0 0 0 0
0 0 0 0 0 0 0 0 0 0 0 0 0 0 0 0 0 0 0 0 0 0 0 0 0 0 0 0 0 0 0 0 0 0 0 0 0 0 0 0 0 0 0 0
0 0 0 0 0 0 0 0 0 0 0 0 0 0 0 0 0 0 0 0 0 0 0 0 0 0 0 0 0 0 0 0 0 0 0 0 0 0 0 0 0 0 0 0
0 0 0 0 0 0 0 0 0 0 0 0 0 0 0 0 0 0 0 0 0 0 0 0 0 0 0 0 0 0 0 0 0 0 0 0 0 0 0 0 0 0 0 0
0 0 0 0 0 0 0 0 0 0 0 0 0 0 0 0 0 0 0 0 0 0 0 0 0 0 0 0 0 0 0 0 0 0 0 0 0 0 0 0 0 0 0 0
0 0 0 0 0 0 0 0 0 0 0 0 0 0 0 0 0 0 0 0 0 0 0 0 0 0 0 0 0 0 0 0 0 0 0 0 0 0 0 0 0 0 0 0
0 0 0 0 0 0 0 0 0 0 0 0 0 0 0 0 0 0 0 0 0 0 0 0 0 0 0 0 0 0 0 0 0 0 0 0 0 0 0 0 0 0 0 0
0 0 0 0 0 0 0 0 0 0 0 0 0 0 0 0 0 0 0 0 0 0 0 0 0 0 0 0 0 0 0 0 0 0 0 0 0 0 0 0 0 0 0 0
0 0 0 0 0 0 0 0 0 0 0 0 0 0 0 0 0 0 0 0 0 0 0 0 0 0 0 0 0 0 0 0 0 0 0 0 0 0 0 0 0 0 0 0
0 0 0 0 0 0 0 0 0 0 0 0 0 0 0 0 0 0 0 0 0 0 0 0 0 0 0 0 0 0 0 0 0 0 0 0 0 0 0 0 0 0 0 0
0 0 0 0 0 0 0 0 0 0 0 0 0 0 0 0 0 0 0 0 0 0 0 0 0 0 0 0 0 0 0 0 0 0 0 0 0 0 0 0 0 0 0 0
0 0 0 0 0 0 0 0 0 0 0 0 0 0 0 0 0 0 0 0 0 0 0 0 0 0 0 0 0 0 0 0 0 0 0 0 0 0 0 0 0 0 0 0
0 0 0 0 0 0 0 0 0 0 0 0 0 0 0 0 0 0 0 0 0 0 0 0 0 0 0 0 0 0 0 0 0 0 0 0 0 0 0 0 0 0 0 0
0 0 0 0 0 0 0 0 0 0 0 0 0 0 0 0 0 0 0 0 0 0 0 0 0 0 0 0 0 0 0 0 0 0 0 0 0 0 0 0 0 0 0 0
0 0 0 0 0 0 0 0 0 0 0 0 0 0 0 0 0 0 0 0 0 0 0 0 0 0 0 0 0 0 0 0 0 0 0 0 0 0 0 0 0 0 0 0
0 0 0 0 0 0 0 0 0 0 0 0 0 0 0 0 0 0 0 0 0 0 0 0 0 0 0 0 0 0 0 0 0 0 0 0 0 0 0 0 0 0 0 0
0 0 0 0 0 0 0 0 0 0 0 0 0 0 0 0 0 0 0 0 0 0 0 0 0 0 0 0 0 0 0 0 0 0 0 0 0 0 0 0 0 0 0 0
0 0 0 0 0 0 0 0 0 0 0 0 0 0 0 0 0 0 0 0 0 0 0 0 0 0 0 0 0 0 0 0 0 0 0 0 0 0 0 0 0 0 0 0
0 0 0 0 0 0 0 0 0 0 0 0 0 0 0 0 0 0 0 0 0 0 0 0 0 0 0 0 0 0 0 0 0 0 0 0 0 0 0 0 0 0 0 0
0 0 0 0 0 0 0 0 0 0 0 0 0 0 0 0 0 0 0 0 0 0 0 0 0 0 0 0 0 0 0 0 0 0 0 0 0 0 0 0 0 0 0 0
0 0 0 0 0 0 0 0 0 0 0 0 0 0 0 0 0 0 0 0 0 0 0 0 0 0 0 0 0 0 0 0 0 0 0 0 0 0 0 0 0 0 0 0
0 0 0 0 0 0 0 0 0 0 0 0 0 0 0 0 0 0 0 0 0 0 0 0 0 0 0 0 0 0 0 0 0 0 0 0 0 0 0 0 0 0 0 0
Wind_Speed
1 2 3 4 5 3 2 4 5 4 1 3 7 11 12 9 7 8 8 8 7 7 6 4 4 4 4 5 5 5 6 5 4 3 3 3 3 3 3 3 3 4 4 4
3 2 2 1 3 3 4 4 5 3 1 3 6 11 11 8 7 7 7 7 7 6 4 3 2 3 4 5 5 5 6 5 5 4 3 2 2 2 2 2 3 4 4 4
4 1 2 3 4 4 4 5 4 3 3 3 6 8 5 3 3 4 6 6 6 5 5 3 2 3 4 4 5 4 5 5 5 4 3 2 2 2 2 3 2 3 4 4
2 1 3 3 3 4 4 2 3 3 4 3 3 7 5 3 4 3 4 3 4 3 3 2 2 2 3 4 4 4 4 4 4 4 4 5 4 3 3 2 2 2 3 4
2 2 3 4 3 3 1 1 1 2 3 4 3 6 6 2 4 3 2 2 2 3 2 2 1 1 2 2 3 3 3 3 4 4 4 4 3 3 2 2 2 2 2 3
1 1 2 1 1 1 3 2 2 1 2 5 4 6 7 4 5 3 2 2 3 3 3 2 1 1 1 1 2 2 3 3 3 3 3 4 4 3 2 3 3 2 2 2
2 2 1 1 2 3 3 2 1 2 2 4 2 5 9 4 4 4 3 3 3 4 3 2 2 0 1 1 2 2 3 3 3 3 3 4 4 4 4 3 3 3 2 2
4 3 3 3 3 4 5 4 3 4 4 3 3 8 6 2 3 2 2 2 3 3 3 3 2 1 1 0 1 2 2 2 2 2 3 3 4 3 3 3 3 3 3 3
5 3 1 1 1 2 4 4 2 1 1 4 6 6 7 3 3 1 1 2 2 2 2 2 3 2 1 1 0 2 2 2 2 2 2 2 3 3 3 3 3 2 2 2
3 2 1 1 2 1 1 3 3 4 3 6 6 6 5 4 4 3 2 2 1 2 2 2 2 2 2 2 1 1 1 1 1 1 2 2 2 2 2 2 2 2 3 3
2 3 1 2 6 7 5 5 4 3 3 4 6 6 2 4 4 5 4 2 1 1 2 2 2 2 2 2 2 1 1 0 1 1 2 2 2 2 2 2 2 3 3 3
2 2 3 4 1 2 5 6 7 5 5 5 5 8 2 2 2 3 3 2 2 2 1 2 2 2 2 2 2 2 2 1 1 1 1 2 2 1 1 2 2 3 3 3
4 4 1 2 2 2 4 5 6 3 2 5 7 8 2 0 1 3 4 3 3 3 2 2 2 2 2 2 2 3 2 2 2 1 1 1 1 2 2 3 3 3 3 3
3 4 6 7 4 4 6 7 8 7 7 8 12 13 9 7 5 5 4 4 4 3 3 2 2 2 2 2 2 2 3 3 2 1 1 2 2 2 3 3 3 3 3 3
3 5 6 7 5 4 7 10 12 14 14 12 13 13 13 10 7 6 4 4 4 4 4 3 3 2 2 2 3 3 3 3 2 2 2 2 3 3 3 3 3 3 3 3
3 4 3 6 5 6 9 13 14 15 14 16 15 16 13 8 5 5 6 5 6 6 5 4 3 3 3 3 3 3 3 3 2 2 3 3 3 3 3 3 3 3 3 3
5 5 4 5 2 4 11 13 15 11 12 12 15 13 6 5 6 6 6 6 7 7 6 5 4 3 3 3 3 3 3 3 2 2 3 3 3 3 3 3 3 3 4 3
6 5 3 3 2 10 7 2 8 11 11 13 12 10 7 7 5 5 6 7 7 6 5 5 4 3 3 3 3 3 2 2 2 3 3 3 3 3 3 3 4 4 3 4
5 5 4 4 6 11 7 4 6 8 9 10 14 13 8 3 4 6 5 6 7 6 4 4 3 3 3 2 2 2 2 2 3 3 4 4 3 4 4 4 5 4 4 4
2 3 4 5 7 10 6 2 3 3 6 4 8 9 5 3 4 3 2 3 4 3 3 2 2 2 3 2 2 2 3 3 4 5 5 4 4 4 5 5 5 4 4 4
5 5 7 8 9 10 4 2 5 6 5 0 3 4 4 6 4 3 4 4 3 2 2 1 2 2 2 2 2 3 4 5 5 4 4 4 4 4 4 4 4 3 3 3
10 9 9 7 9 12 4 6 8 5 1 1 2 3 5 6 5 5 5 4 3 3 2 1 2 3 2 1 2 4 5 5 4 4 4 4 4 4 3 3 3 3 3 3
10 10 7 10 8 2 5 5 2 1 1 2 3 4 4 5 6 6 6 5 4 4 3 2 2 3 3 2 2 4 5 4 4 4 4 4 4 3 3 3 3 3 3 3
7 4 5 7 9 5 5 5 4 4 4 4 4 4 4 6 7 7 6 5 5 4 3 2 2 3 4 3 3 4 4 3 3 4 4 4 3 4 3 2 2 3 3 3
6 6 6 8 7 5 5 7 7 6 5 6 6 5 6 6 7 7 6 5 5 4 3 3 4 4 5 4 4 4 3 3 3 4 4 4 3 3 3 3 3 4 4 4
6 8 8 8 5 5 5 2 3 5 6 6 6 6 5 6 8 7 6 5 5 4 4 4 4 5 5 4 4 4 3 3 3 4 4 3 3 3 3 3 3 5 5 6
Wind_Direction
47 166 197 205 212 221 206 221 256 277 6 270 261 274 282 282 271 268 267 267 264 265 267 254 238 223 208 203 199 201 202 195 187 191 197 206 223 216 216 219 221 221 215 209
147 219 234 192 186 195 208 241 264 284 9 272 284 282 279 277 265 264 267 269 269 269 266 243 222 207 200 197 198 201 203 196 194 201 201 215 217 217 226 225 223 224 215 208
192 120 150 170 175 191 229 236 258 280 314 236 291 280 263 275 253 263 258 263 274 274 275 262 226 208 202 200 202 204 203 198 194 195 189 187 194 205 213 227 228 229 223 213
199 174 175 182 205 208 244 225 242 264 280 280 309 291 280 288 285 274 266 272 289 295 290 273 237 214 207 206 201 203 199 193 189 186 194 201 208 220 230 238 238 240 229 219
186 174 184 206 230 214 216 110 200 238 252 273 239 259 272 268 269 270 282 309 325 330 322 307 253 219 207 193 193 194 188 185 183 191 202 205 215 232 233 236 235 233 224 218
197 235 258 232 81 186 149 135 120 153 223 257 233 238 269 232 237 250 264 302 337 352 353 351 9 145 159 160 179 180 181 187 190 196 207 211 216 222 228 232 238 239 231 225
249 216 205 193 150 149 193 194 249 243 234 249 143 240 256 255 246 250 271 298 335 350 1 9 16 62 125 165 181 183 187 197 199 201 211 216 222 221 224 229 232 242 240 238
209 236 197 201 217 189 195 216 214 246 258 276 198 244 261 280 291 290 292 307 328 347 2 7 6 14 48 207 186 182 191 203 199 203 215 221 226 225 231 233 235 239 247 247
203 221 82 192 286 199 174 203 261 209 332 277 253 263 282 250 254 258 288 306 319 350 359 355 6 17 16 356 295 199 191 201 205 213 219 227 228 230 236 238 237 247 261 257
196 206 242 250 191 216 264 162 171 194 231 262 270 258 254 225 226 221 234 256 301 343 352 352 358 5 17 10 356 357 205 217 221 228 229 238 236 237 237 234 239 257 264 259
220 188 211 208 208 200 172 180 197 192 233 242 271 267 237 225 207 208 221 235 264 302 328 335 346 11 23 23 16 15 12 336 307 276 252 239 247 246 237 239 250 257 262 256
193 194 234 236 236 305 228 213 192 206 220 227 257 271 64 216 231 226 238 247 259 281 315 333 341 7 16 13 11 11 5 341 310 289 272 257 246 246 251 255 259 260 259 258
167 173 219 252 194 196 233 225 218 223 200 212 232 259 87 106 277 251 249 260 267 280 297 318 331 348 357 356 356 356 357 347 335 308 279 273 271 264 261 262 261 257 257 260
181 204 219 240 259 188 218 222 210 204 218 228 236 257 270 274 276 277 269 264 268 276 280 286 300 314 331 337 339 344 348 348 344 332 299 279 281 277 274 272 270 263 257 257
196 232 240 264 269 244 244 234 215 219 228 236 249 253 265 266 269 274 271 263 265 273 277 273 274 294 313 323 328 332 336 340 336 320 310 291 281 280 280 282 282 277 266 260
202 226 239 264 254 255 263 249 231 232 237 244 259 264 268 277 269 264 261 255 260 265 270 270 272 282 289 296 303 311 318 326 321 301 299 302 287 276 273 278 280 278 276 270
191 188 213 251 265 281 258 233 213 217 221 221 236 248 251 248 242 250 253 253 256 260 259 259 260 261 274 283 288 291 302 311 306 297 294 294 286 273 269 273 271 271 274 275
185 187 213 250 223 239 240 176 206 218 233 226 241 254 255 256 274 266 254 252 256 258 257 259 262 262 272 283 285 294 304 302 296 299 299 297 291 277 273 267 263 267 270 265
204 185 192 210 244 266 273 216 192 209 254 232 233 249 262 275 287 267 254 246 250 251 254 261 261 265 273 273 277 284 290 293 291 290 290 290 290 285 273 264 265 268 267 266
179 201 201 208 233 246 254 175 187 184 262 237 221 244 247 206 253 276 340 295 268 268 261 260 264 265 265 270 271 272 277 280 279 284 288 289 283 277 267 262 265 271 264 266
181 198 212 222 239 257 260 156 162 198 247 234 213 234 209 223 259 316 319 310 297 288 285 271 252 259 266 272 265 267 275 275 285 296 295 290 285 281 274 266 264 266 267 272
187 189 203 200 224 246 172 158 199 233 7 198 236 235 234 254 284 294 299 299 292 286 280 264 266 279 286 274 262 268 273 288 302 297 290 290 291 289 287 272 267 262 257 263
210 203 197 203 223 292 166 202 238 358 249 263 270 263 247 264 274 280 283 282 278 271 270 267 260 279 288 276 260 266 281 303 302 294 288 293 299 295 289 269 259 257 252 256
230 227 216 241 254 245 230 249 265 253 255 270 275 274 254 260 269 272 274 274 273 271 267 268 259 268 281 285 272 267 285 298 286 280 286 292 293 293 291 272 256 254 251 254
224 191 215 245 263 283 260 242 251 254 257 267 272 266 259 260 266 267 268 265 265 269 270 259 252 257 269 283 279 278 280 281 272 277 283 287 283 281 280 269 258 259 257 258
199 196 205 233 228 226 252 256 244 246 257 261 266 274 269 258 263 267 264 261 262 263 264 263 262 263 270 275 276 278 274 256 256 268 274 277 277 270 267 271 277 264 266 274